Find Starlink 32784

NORAD ID: 62607 Int'l Des: 2025-008 Owner: SPXS Country: US Constellation: starlink operational
LEOCIRCULAR

Current View

Loading 3D Globe...

About Starlink 32784

Starlink 32784 (NORAD 62607) is a starlink constellation satellite (v2 mini) launched Jan 13, 2025 by SPXS of US. It operates in LEO, CIRCULAR orbit with a mass of 730.00 kg.

Upcoming Passes

Passes for default location (London). Set your location on the main map for personalized predictions.

Altitude History

Loading altitude history...

Two-Line Element Set

1 62607U 25008W 26265.25530374 .00130874 00000-0 92188-3 0 9990
2 62607 42.9837 206.0316 0027309 167.8531 192.3001 15.72423979 96163
Epoch: Sep 22, 2026 • Age: 22 hours

Current Status

Altitude 334.0 km
Apogee / Perigee N/A
Velocity 7.72 km/s
Sub-Earth Point 20.05°N, 65.99°W
Launch Date Jan 13, 2025
Age 1.6 years
Type internet

Technical Details

Classification Payload
Mass 730.00 kg
Dry Mass 700.00 kg
Length 0.30 m
Span 29.00 m
Shape ? Box + pan
Manufacturer SPXS
Bus Type Starlink V2M
Phase Status In Orbit
Owner/State SPXS/US

Most Searched